Scottsbluff, NE

7:22 AM MDT on September 16, 2019 (GMT -0600)
Heilig

Weather History for KBFF - July, 2019

Change the Weather History Date:

Saturday, July 20, 2019

  Actual Average Record
Temperature  
Mean Temperature 74 °F -  
Max Temperature 84 °F 85 °F 108 °F (1939)
Min Temperature 64 °F 58 °F 40 °F (1900)
Cooling Degree Days 10    
Growing Degree Days 24 (Base 50)    
Moisture  
Dew Point 63 °F    
Average Humidity 77    
Maximum Humidity 97    
Minimum Humidity 46    
Precipitation  
Precipitation 0.00 in - - ()
Sea Level Pressure  
Sea Level Pressure 29.89 in    
Wind  
Wind Speed 9 mph (NNE)    
Max Wind Speed 16 mph    
Max Gust Speed 25 mph    
Visibility 10 miles    
Events Rain    
Averages and records for this station are not official NWS values.
T = Trace of Precipitation, MM = Missing Value Source: NWS Daily Summary

Daily Weather History Graph

Daily Weather History Graph

Search for Another Location

Airport or City:

Astronomy

Jul. 20, 2019 Rise Set
Actual Time 5:36 AM MDT 8:24 PM MDT
Civil Twilight 5:03 AM MDT 8:57 PM MDT
Nautical Twilight 4:22 AM MDT 9:38 PM MDT
Astronomical Twilight 3:35 AM MDT 10:25 PM MDT
Moon 10:50 PM MDT (7/20) 9:04 AM MDT (7/20)
Length of Visible Light 15h 53m
Length of Day
14h 47m
Waning Gibbous, 87% of the Moon is Illuminated
Jul 20
Waning Gibbous
Jul 24
Last Quarter
Jul 31
New
Aug 7
First Quarter
Aug 15
Full

Hourly Weather History & Observations

Time (MDT) Temp. Heat Index Dew Point Humidity Pressure Visibility Wind Dir Wind Speed Gust Speed Precip Events Conditions
12:53 AM 71.1 °F - 66.0 °F 84% 29.64 in 10.0 mi ESE 3.5 mph - N/A   Clear
1:53 AM 68.0 °F - 66.0 °F 93% 29.64 in 10.0 mi North - - N/A   Clear
2:53 AM 68.0 °F - 66.0 °F 93% 29.65 in 9.0 mi NW 4.6 mph - N/A   Clear
3:53 AM 64.9 °F - 64.0 °F 97% 29.66 in 7.0 mi Calm Calm - N/A   Clear
4:53 AM 66.0 °F - 64.0 °F 93% 29.69 in 8.0 mi WNW 11.5 mph - N/A   Clear
5:53 AM 66.0 °F - 64.0 °F 93% 29.74 in 10.0 mi WNW 10.4 mph - N/A   Mostly Cloudy
6:04 AM 66.9 °F - 64.0 °F 90% 29.92 in 10.0 mi NW 6.9 mph - N/A   Mostly Cloudy
6:26 AM 69.1 °F - 64.9 °F 87% 29.93 in 10.0 mi West 5.8 mph - N/A   Overcast
6:53 AM 72.0 °F - 68.0 °F 87% 29.77 in 10.0 mi North 11.5 mph 21.9 mph N/A   Overcast
7:22 AM 70.0 °F - 66.9 °F 90% 29.96 in 10.0 mi North 11.5 mph - N/A   Overcast
7:53 AM 68.0 °F - 64.9 °F 90% 29.83 in 10.0 mi North 16.1 mph - N/A   Overcast
8:53 AM 66.0 °F - 62.1 °F 87% 29.88 in 10.0 mi North 15.0 mph - N/A   Overcast
9:29 AM 66.0 °F - 61.0 °F 84% 30.03 in 10.0 mi NNE 16.1 mph 23.0 mph N/A   Overcast
9:53 AM 66.0 °F - 61.0 °F 84% 29.91 in 10.0 mi NNE 10.4 mph - N/A   Overcast
10:53 AM 68.0 °F - 62.1 °F 81% 29.95 in 10.0 mi NE 10.4 mph - N/A   Overcast
11:53 AM 68.0 °F - 62.1 °F 81% 29.96 in 10.0 mi NE 11.5 mph - N/A   Overcast
12:36 PM 71.1 °F - 63.0 °F 75% 30.08 in 10.0 mi NNE 11.5 mph - N/A   Overcast
12:53 PM 73.9 °F - 63.0 °F 68% 29.95 in 10.0 mi NE 9.2 mph - N/A   Overcast
1:04 PM 75.9 °F - 63.0 °F 64% 30.08 in 10.0 mi ENE 8.1 mph - N/A   Mostly Cloudy
1:53 PM 79.0 °F - 62.1 °F 56% 29.93 in 10.0 mi NE 12.7 mph - N/A   Overcast
2:53 PM 84.0 °F 84.5 °F 62.1 °F 47% 29.92 in 10.0 mi ENE 11.5 mph - N/A   Scattered Clouds
3:53 PM 84.0 °F 84.9 °F 63.0 °F 49% 29.91 in 10.0 mi ENE 13.8 mph - N/A   Partly Cloudy
4:53 PM 82.0 °F 83.1 °F 63.0 °F 52% 29.91 in 10.0 mi ENE 11.5 mph - N/A   Partly Cloudy
5:53 PM 79.0 °F - 62.1 °F 56% 29.92 in 10.0 mi ENE 12.7 mph - N/A   Clear
6:53 PM 78.1 °F - 62.1 °F 58% 29.89 in 10.0 mi East 11.5 mph - N/A   Clear
7:53 PM 73.9 °F - 61.0 °F 64% 29.95 in 10.0 mi ENE 6.9 mph - N/A   Clear
8:53 PM 73.0 °F - 61.0 °F 66% 29.97 in 10.0 mi ENE 6.9 mph - N/A   Mostly Cloudy
9:53 PM 73.0 °F - 62.1 °F 68% 30.00 in 10.0 mi North 5.8 mph - N/A   Overcast
10:53 PM 70.0 °F - 63.0 °F 78% 30.03 in 10.0 mi NNE 12.7 mph - 0.00 in   Overcast
11:53 PM 64.9 °F - 62.1 °F 90% 30.04 in 10.0 mi WNW 15.0 mph 25.3 mph 0.00 in Rain Light Rain